Location: *
(49.6619°S, 177.4603°W)
Time: 05:06:47
(UTC+00:00)

Cosmos 990 Rocket - Pass Details

Date: 31 January 2023
Orbit: 745 x 768 km, 74.0° (Epoch: 01 April)

Event Time Altitude Azimuth Distance (km) Brightness Sun altitude
Rises 09:09:50 0° 207° (SSW) 3,267 8.9 -12.8°
Reaches altitude 10° 09:12:16 10° 210° (SSW) 2,330 7.9 -13.0°
Maximum altitude 09:17:27 57° 288° (WNW) 900 4.5 -13.6°
Enters shadow 09:21:47 14° 3° (N) 2,012 5.7 -14.0°
